User: anonymous   Login
Location: Amarillo Post Office Jordan Station
(35.1907°N, 101.9342°W)
Time: 18:04:57
(UTC+00:00)
Language:

USA 307 - Orbit

View from above orbital plane
View from above orbital plane
View from above satellite
View from above satellite

Ground track
Ground track

The orbit data is extracted from the following two-line orbital elements,

1 45875U 20046C   21106.11434718 0.00002300  00000-0  19104-3 0    06
2 45875  53.9824 176.0135 0007676 295.3693  64.6306 14.98282790    03
Epoch (UTC): 16 April 2021 02:44:39
Eccentricity: 0.0007676
inclination: 53.9824°
perigee height: 567 km
apogee height: 577 km
right ascension of ascending node: 176.0135°
argument of perigee: 295.3693°
revolutions per day: 14.98282790
mean anomaly at epoch: 64.6306°
orbit number at epoch: 0

The dashed part of the orbit path shows where the satellite is in the earth's shadow,  

DLR